Weather in Khurba

Russia / Khabarovsk Krai     50°24′14″N   136°53′14″E
temp.,
°C
wind,
m/s
gust,
m/s
humid.,
%
clouds,
%
prec.,
mm/h
press.,
hPa
HPBL,
m
9 december, thu
thu901:00−11s71493100 0.0 1026365
04:00−11s6139390 0.1 1026354
07:00−11s6149382 0.0 1026368
10:00−11s6189381 0.0 1025446
13:00−8s7179143 0.0 1023455
16:00−8s817885 0.0 1022445
19:00−8s7188712 0.0 1021432
22:00−8s71883100 0.0 1021438
10 december, fri
fri1001:00−8s71585100 0.0 1021412
04:00−8sse51290100 0.0 1021333
07:00−8s41089100 0.0 1021307
10:00−7s41089100 0.0 1022338
13:00−5sse3788100 0.0 1021321
16:00−5s1393100 0.0 1021202
19:00−6nnw2296100 0.0 102341
22:00−5n2797100 0.8 1023301
11 december, sat
sat1101:00−6n41091100 0.3 1024352
04:00−7n3992100 0.3 1024262
07:00−8n41192100 0.0 1023279
10:00−8n4119268 0.0 1024324
13:00−7n478987 0.0 1023364
16:00−8nne359383 0.0 1023176
19:00−13n2298100 0.0 102224
22:00−10n2396100 0.1 102184
12 december, sun
sun1201:00−10n2296100 0.3 101976
04:00−10n2297100 0.6 101758
07:00−10n2396100 0.5 1015148
10:00−9n2395100 1.1 1014215
13:00−8n2491100 0.4 1012371
16:00−8n2494100 0.7 1010328
19:00−11n2297100 0.1 100921
22:00−13nnw1198100 0.2 100812
13 december, mon
mon1301:00−14wnw1198100 0.0 100610
04:00−13wsw1397100 0.1 100576
07:00−13ssw2496100 0.1 1004128
10:00−13ssw2496100 1.1 1003144
13:00−8nw1988100 1.9 1002771
16:00−6nnw41285100 2.4 1003671
19:00−9nw31089100 0.4 1005589
22:00−11sw3495100 0.7 1008118